Estación de Polizones INIA

Ultimos registro cada 15 minutos 25
Estación Fecha / Hora Temperatura Humedad Lluvia Velocidad Dirección Radiación Presion
25 Polizones INIA 10-05-2026 06:00 3,7 93,3 0 0 0 0 1009
24 Polizones INIA 10-05-2026 05:45 3,9 93,8 0 0 110 0 1009
23 Polizones INIA 10-05-2026 05:30 3,9 94,1 0 0 103 0 1008
22 Polizones INIA 10-05-2026 05:15 4 95,1 0 0 133 0 1009
21 Polizones INIA 10-05-2026 05:00 3,8 96,2 0 0 0 0 1008
20 Polizones INIA 10-05-2026 04:45 3,2 97,1 0 0 0 0 1008
19 Polizones INIA 10-05-2026 04:30 3,2 96,7 0 0 0 0 1008
18 Polizones INIA 10-05-2026 04:15 3 96,5 0 0 0 0 1008
17 Polizones INIA 10-05-2026 04:00 3,1 96,2 0 0 0 0 1008
16 Polizones INIA 10-05-2026 03:45 3,1 96,5 0 0 0 0 1008
15 Polizones INIA 10-05-2026 03:30 3,7 95,6 0 0,1 68 0 1009
14 Polizones INIA 10-05-2026 03:15 3,6 96,6 0 0 0 0 1009
13 Polizones INIA 10-05-2026 03:00 3,2 97,2 0 0 0 0 1009
12 Polizones INIA 10-05-2026 02:45 3 96,6 0 0 0 0 1009
11 Polizones INIA 10-05-2026 02:30 3 96,6 0 0 0 0 1009
10 Polizones INIA 10-05-2026 02:15 3 96,5 0 0 0 0 1009
9 Polizones INIA 10-05-2026 02:00 3 96,3 0 0 0 0 1009
8 Polizones INIA 10-05-2026 01:45 3,4 95,9 0 0 0 0 1009
7 Polizones INIA 10-05-2026 01:30 3,2 96,2 0 0 0 0 1009
6 Polizones INIA 10-05-2026 01:15 3,5 95,8 0 0 0 0 1009
5 Polizones INIA 10-05-2026 01:00 3,7 95,6 0 0 0 0 1009
4 Polizones INIA 10-05-2026 00:45 3,8 95,1 0 0 0 0 1009
3 Polizones INIA 10-05-2026 00:30 4 95,3 0 0 0 0 1009
2 Polizones INIA 10-05-2026 00:15 4,1 94,7 0 0 0 0 1010
1 Polizones INIA 10-05-2026 00:00 4,6 94,1 0 0 0 0 1010